SCP
-0 -0 0 0 0 -0 0 0 -0 0 -0 -0 0 0 0 0 0 0 -0 0 0 -0 -0 -0 0 0 0 0 0 0 0 0 0 0 0 0 0 0 0 0 0 0 0 0 0 0 0 0 0
-0 -0 0 0 -0 0 -0 0 -0 -0 0 -0 -0 0 0 0 0 0 0 -0 -0 0 -0 -0 0 0 0 0 0 0 0 0 0 0 0 0 0 0 0 0 0 0 0 0 0 0 0 0 0
0 -0 0 -0 0 -0 0 0 0 -0 -0 -0 0 0 0 0 0 0 -0 -0 0 0 0 0 0 0 0 0 0 0 0 0 0 0 0 0 0 0 0 0 0 0 0 0 0 0 0 0 0
0 0 0 0 0 0 0 0 -0 -0 -0 -0 -0 0 0 0 0 -0 0 0 0 0 0 0 0 0 0 0 0 0 0 0 0 0 0 0 0 0 0 0 0 0 0 0 0 0 0 0 0
0 0 0 0 0 0 0 0 0 0 -0 -0 -0 -0 0 -0 0 -0 0 0 0 0 0 0 0 0 0 0 0 0 0 0 0 0 0 0 0 0 0 0 0 0 0 0 0 0 0 0 0
0 -0 -0 -0 0 0 0 0 0 -0 0 -0 -0 0 -0 0 0 0 0 0 0 0 0 0 0 0 0 0 0 0 0 0 0 0 0 0 0 0 0 0 0 0 0 0 0 0 0 0 0
0 0 0 0 0 0 -0 -0 0 -0 -0 -0 0 -0 0 -0 -0 0 0 0 0 0 0 0 0 0 0 0 0 0 0 0 0 0 0 0 0 0 0 0 0 0 0 0 0 0 0 0 0
0 0 0 -0 0 0 -0 0 -0 -0 -0 -0 -0 0 0 0 0 0 0 0 0 0 0 0 0 0 0 0 0 0 0 0 0 0 0 0 0 0 0 0 0 0 0 0 0 0 0 0 0
0 0 0 0 0 0 0 0 -0 -0 0 -0 0 0 0 0 0 0 0 0 0 0 0 0 0 0 0 0 0 0 0 0 0 0 0 0 0 0 0 0 0 0 0 0 0 0 0 0 0
0 0 0 0 0 0 0 0 0 0 0 0 0 0 0 0 0 0 0 0 0 0 0 0 0 0 0 0 0 0 0 0 0 0 0 0 0 0 0 0 0 0 0 0 0 0 0 0 0
0 0 0 0 0 0 0 0 0 0 0 0 0 0 0 0 0 0 0 0 0 0 0 0 0 0 0 0 0 0 0 0 0 0 0 0 0 0 0 0 0 0 0 0 0 0 0 0 0
-0 -0 -0 -0 -0 0 0 0 0 0 0 0 0 0 0 0 0 0 0 0 0 0 0 0 0 0 0 0 0 0 0 0 0 -0 0 0 0 0 0 0 0 0 0 0 0 0 0 0 0
0 0 0 0 0 0 0 0 0 0 0 0 0 0 0 0 0 0 0 0 0 0 0 0 0 0 0 0 0 0 0 0 0 0 0 0 0 0 0 0 0 0 0 0 -0 0 0 0 0
0 0 0 0 0 -0 -0 0 0 0 0 0 0 0 0 0 0 0 0 0 0 0 0 0 0 0 0 0 0 0 0 0 0 0 0 0 0 0 0 0 0 0 0 0 0 0 0 0 0
0 0 0 0 0 0 -0 0 0 0 0 0 0 0 0 0 0 0 0 0 0 0 0 0 0 0 0 0 0 0 0 0 0 0 0 0 0 0 0 0 0 0 0 0 0 0 0 0 0
0 0 0 0 0 0 0 0 0 0 0 0 0 0 0 -0 0 0 0 0 0 0 0 0 0 0 0 0 0 0 0 0 0 0 0 0 0 0 0 0 0 0 0 0 0 0 0 0 0
-0 -0 0 0 0 0 0 0 0 -0 -0 0 -0 -0 0 0 0 0 0 0 0 0 0 0 0 0 0 0 0 0 0 0 0 0 0 0 0 0 0 0 0 0 0 0 0 0 0 0 0
-0 -0 0 0 0 0 0 0 0 -0 -0 0 0 0 0 0 0 0 0 0 0 0 0 0 0 0 0 0 0 0 0 0 0 0 0 0 0 0 0 0 0 0 0 0 0 0 0 0 0
0 0 0 0 0 0 0 0 0 -0 -0 0 0 0 0 0 0 0 0 0 0 0 0 0 0 0 0 0 0 0 0 0 0 0 0 0 0 0 0 0 0 0 0 0 0 0 0 0 0
0 0 0 0 0 0 0 0 0 -0 -0 -0 0 0 0 0 0 0 0 0 0 0 0 0 0 0 0 0 0 0 0 0 0 0 0 0 0 0 0 0 0 0 0 0 0 0 0 0 0
-0 0 0 0 0 0 0 0 0 0 0 -0 0 -0 0 0 -0 -0 0 0 0 0 0 0 0 0 0 0 0 0 0 0 0 0 0 0 0 0 0 0 0 0 0 0 0 0 0 0 0
0 0 0 0 0 0 0 -0 0 0 0 0 0 -0 0 0 0 -0 0 0 0 0 0 0 0 0 0 0 0 0 0 0 0 0 0 0 0 0 0 0 0 0 0 0 0 0 0 0 0
0 0 0 0 0 0 0 0 0 -0 0 0 0 0 0 0 -0 -0 -0 0 0 0 0 0 0 0 0 0 0 0 0 0 0 0 0 0 0 0 0 0 0 0 0 0 0 0 0 0 0
0 0 0 0 0 0 0 0 0 0 0 0 0 0 0 0 0 0 0 0 0 0 0 0 0 0 0 0 0 0 0 0 0 0 0 0 0 0 0 0 0 0 0 0 0 0 0 0 0
-0 0 0 0 0 0 0 0 0 0 0 0 0 0 0 0 0 0 0 0 0 0 0 0 0 0 0 0 0 0 0 0 0 0 0 0 0 0 0 0 0 0 0 0 0 0 0 0 0
-0 0 0 0 0 0 0 0 0 0 0 0 0 0 0 0 0 0 0 0 0 0 0 0 0 0 0 0 0 0 0 0 0 0 0 0 0 0 0 0 0 0 0 0 0 0 0 0 0
0 0 0 0 0 0 0 0 0 0 0 0 0 0 0 0 0 0 0 0 0 0 0 0 0 0 0 0 0 0 0 0 0 0 0 0 0 0 0 0 0 0 0 0 0 0 0 0 0
0 -0 0 0 0 0 0 0 -0 0 0 0 0 0 0 0 0 0 0 0 0 0 0 0 0 0 0 0 0 0 0 0 0 0 0 0 0 0 0 0 0 0 0 0 0 0 0 0 0
0 0 0 0 0 0 0 0 0 0 0 0 0 0 0 0 0 1 0 -0 0 0 0 0 0 0 0 0 0 0 0 0 0 0 0 0 0 0 0 0 0 0 0 0 0 0 0 0 0
0 0 0 0 0 0 0 0 0 0 0 0 0 0 0 0 0 0 0 -0 0 0 0 0 0 0 0 0 0 0 0 0 0 0 0 0 0 0 0 0 0 0 0 0 0 0 0 0 0
Wind_Speed_500mb
29 32 20 7 7 10 7 7 13 10 13 38 36 34 22 21 4 9 27 26 15 10 19 26 21 18 17 14 14 14 15 15 14 15 15 16 18 21 22 23 23 23 21 22 25 23 19 21 25
31 29 23 9 9 7 6 9 29 28 46 55 56 43 41 25 34 37 32 21 12 14 16 22 25 21 17 14 15 16 15 16 16 16 16 17 19 21 23 26 27 29 30 30 22 22 24 23 23
37 9 17 8 2 4 11 13 27 31 24 19 12 22 13 21 20 19 22 12 10 12 13 17 20 20 18 13 14 14 17 18 18 16 16 19 20 20 23 27 28 29 30 29 28 20 20 20 21
41 30 18 8 10 13 15 26 48 42 34 25 26 16 37 25 25 25 20 19 19 24 19 14 15 17 15 12 16 22 23 18 14 13 13 14 15 19 26 33 34 34 28 22 21 21 20 19 18
32 18 11 8 10 16 24 41 44 21 24 34 40 21 28 29 26 35 34 27 21 22 17 12 14 14 13 11 18 23 23 13 8 6 7 10 15 22 28 34 43 43 38 34 26 20 19 19 20
23 22 6 6 9 19 7 28 40 43 43 39 42 32 16 28 36 37 36 25 24 16 18 12 15 16 14 14 18 23 24 16 9 4 4 6 7 21 28 31 37 35 37 34 33 31 28 19 14
18 7 11 7 4 4 9 4 17 26 18 11 33 12 27 42 41 42 31 21 13 13 16 16 15 11 10 15 19 22 22 21 16 8 7 12 9 17 24 22 29 29 29 31 25 26 24 23 19
11 11 8 6 6 8 8 4 27 18 7 35 27 7 18 37 32 25 17 16 14 7 12 11 5 8 8 7 18 17 23 28 29 17 7 7 6 7 11 17 16 21 22 24 23 23 23 19 13
6 7 9 12 13 9 22 11 9 26 42 12 11 43 50 34 23 13 8 10 14 7 4 8 9 14 13 9 14 14 21 27 31 20 5 11 6 3 3 4 12 16 22 27 22 19 26 24 10
9 6 16 15 21 16 27 48 37 20 22 13 32 47 41 26 12 7 10 13 14 12 12 5 11 15 11 11 10 11 18 29 26 23 6 9 7 3 10 10 13 22 22 16 12 17 25 19 9
15 12 14 15 36 36 40 39 39 44 11 48 56 49 36 24 11 4 5 6 9 11 10 8 20 17 19 17 9 11 20 24 22 25 17 14 12 2 8 14 21 21 9 14 20 25 20 9 7
11 10 24 27 29 38 36 43 19 30 26 49 50 39 27 14 9 1 4 4 8 6 9 10 11 26 17 13 10 9 12 14 21 26 24 19 17 4 11 20 22 7 16 21 22 26 22 11 6
11 13 33 51 51 42 40 34 24 21 43 49 45 34 25 18 15 12 2 4 8 6 6 9 9 15 22 19 10 5 1 8 16 20 28 23 19 9 14 18 7 18 19 24 32 35 22 14 11
2 18 14 39 50 45 33 25 30 37 50 51 45 33 28 28 25 17 8 3 7 8 6 7 7 9 18 17 9 11 5 6 11 20 31 26 19 8 15 17 12 19 23 29 32 35 23 16 17
14 9 10 32 36 13 49 4 11 51 47 50 41 39 39 39 31 19 9 6 8 11 7 6 4 10 16 6 11 15 4 3 10 19 32 27 19 13 19 19 16 22 25 31 35 24 18 20 22
10 11 5 8 25 28 21 12 26 55 52 51 52 54 55 50 39 30 14 8 7 10 8 5 0 12 20 14 16 10 4 4 11 16 31 30 23 17 18 18 21 22 26 32 40 28 18 16 19
13 2 2 15 17 14 13 7 36 64 59 51 54 61 59 53 47 35 23 11 3 6 10 6 5 19 20 15 13 10 4 6 9 19 28 33 30 24 22 23 21 21 30 37 38 28 24 24 23
11 8 7 11 7 15 13 16 37 57 53 50 58 65 62 64 56 42 30 20 7 3 8 9 6 13 14 9 14 16 8 5 8 15 23 30 29 30 29 26 26 26 33 40 35 28 27 24 23
14 5 7 15 12 7 12 16 32 55 49 42 56 67 67 70 56 45 36 27 19 11 1 9 7 5 11 17 17 14 12 4 12 13 17 28 23 30 35 36 29 31 36 40 39 32 30 26 22
12 12 15 14 12 12 11 17 26 46 57 64 61 63 67 66 57 54 46 39 27 14 6 3 5 1 7 12 20 18 21 12 10 10 18 20 21 29 34 41 35 30 30 31 44 38 37 35 29
12 16 5 9 6 7 4 9 8 2 21 37 49 75 71 72 71 66 58 51 37 23 10 6 4 2 5 9 18 19 19 17 11 8 17 17 20 23 30 38 39 28 25 29 37 41 37 33 27
4 4 12 8 3 3 6 3 9 12 17 30 45 59 64 69 76 78 67 61 46 26 17 13 8 4 4 8 13 19 23 20 18 13 12 15 17 16 24 35 37 23 24 23 27 36 39 33 30
9 9 7 8 9 6 9 9 11 3 24 28 33 52 68 66 76 84 75 64 44 31 22 16 15 5 3 4 12 17 22 20 17 8 12 11 9 12 22 32 35 21 19 23 24 24 30 36 30
11 4 18 10 6 7 7 8 7 10 18 11 37 59 71 69 72 82 74 63 48 35 31 25 20 12 3 3 6 9 11 15 19 15 9 13 8 12 20 29 32 22 16 26 25 23 22 27 30
11 14 8 10 9 9 10 3 14 10 22 39 39 25 72 69 78 83 75 75 59 49 39 30 26 18 8 5 3 2 5 10 15 16 13 17 24 19 20 21 29 26 16 15 23 29 19 21 25
11 13 8 3 6 5 11 7 8 12 21 21 19 18 36 68 76 84 80 78 70 53 40 30 31 23 13 8 10 8 8 13 15 12 16 19 18 25 24 27 27 26 23 13 18 23 26 21 21
7 9 6 9 9 4 6 11 2 9 13 18 20 45 29 22 47 70 79 80 76 54 46 37 33 25 18 10 11 10 9 11 14 11 13 13 14 19 23 22 24 23 23 19 19 24 26 28 22
11 7 6 7 4 8 10 7 8 10 11 9 36 32 42 20 28 35 40 62 71 61 50 43 35 26 15 12 11 12 13 13 17 19 17 19 18 20 21 20 23 23 24 24 25 26 25 27 27
2 4 11 7 9 7 5 12 12 11 16 7 23 33 28 15 28 51 39 60 65 73 65 47 40 26 19 13 14 16 14 17 19 23 22 23 23 24 28 27 26 27 27 26 31 34 34 36 37
9 12 11 9 7 4 8 13 12 10 15 23 14 30 23 10 34 45 45 78 60 77 72 51 38 23 14 13 20 21 20 18 21 26 26 26 30 30 31 30 27 26 27 29 32 34 35 37 39
Wind_Direction_500mb
62 35 21 56 76 57 331 97 140 112 57 72 85 83 85 62 91 158 137 149 112 51 22 11 15 4 353 337 335 337 335 335 336 336 340 342 346 349 345 341 338 336 340 337 327 319 312 308 308
31 14 23 26 61 96 261 144 90 106 121 99 85 79 64 72 85 132 145 131 67 10 16 39 40 28 11 351 344 341 334 329 323 325 330 337 342 344 341 337 335 332 328 326 336 324 313 303 296
75 317 38 65 88 299 125 111 117 109 103 105 86 59 61 89 107 149 123 89 360 53 53 46 37 35 30 25 16 2 346 331 325 330 338 342 346 353 352 345 337 328 321 317 319 326 322 323 311
93 43 59 68 355 294 128 120 111 109 84 85 102 61 84 96 109 118 100 93 106 82 71 55 45 31 30 39 16 1 350 329 324 334 341 351 4 3 6 7 360 355 347 323 317 325 326 330 335
84 56 36 15 338 14 83 115 116 104 95 89 98 113 105 109 102 105 105 99 83 84 68 45 36 30 25 44 12 360 352 330 326 356 22 16 1 358 11 15 12 15 25 33 26 7 347 327 319
80 100 51 310 355 1 51 120 95 88 100 107 105 118 119 121 118 118 106 98 88 90 66 68 32 31 35 26 22 12 11 9 9 19 14 333 356 0 10 20 11 13 26 36 35 27 23 17 338
117 107 173 171 239 290 256 108 88 104 103 70 130 103 105 110 113 113 108 107 107 58 45 63 64 38 21 21 33 30 26 20 4 336 354 7 26 9 4 18 11 12 18 18 22 18 4 6 15
87 76 127 205 177 251 239 199 130 112 102 127 130 123 119 135 133 127 109 79 70 57 348 5 87 109 52 52 51 36 5 6 2 359 266 314 13 27 34 33 357 3 7 1 355 360 352 351 332
113 73 150 183 152 229 176 147 138 122 127 138 86 112 132 136 145 137 84 23 10 351 350 322 52 146 109 78 65 35 12 357 355 8 249 257 294 251 311 37 341 342 337 328 336 338 339 358 3
103 111 211 185 168 181 179 125 130 127 124 132 104 128 133 145 156 102 33 14 350 349 351 21 129 115 155 120 79 46 2 343 356 10 355 356 352 222 291 284 301 328 332 340 347 330 322 346 20
159 175 174 198 172 167 157 141 143 145 175 157 142 136 138 135 120 37 33 341 349 332 338 63 179 138 128 120 92 2 340 345 3 13 11 18 12 197 290 335 348 347 0 350 357 352 350 351 345
49 32 162 178 198 170 148 149 156 171 180 162 150 152 153 161 154 344 336 353 351 319 10 38 150 183 174 199 230 284 330 6 355 0 10 22 29 90 351 8 9 20 353 354 347 334 327 314 304
78 20 121 146 149 153 141 145 139 145 165 157 152 150 152 173 195 210 273 44 25 351 24 57 87 187 200 226 228 184 27 341 345 354 360 9 19 359 3 19 1 343 351 345 340 338 329 299 273
166 104 142 141 139 140 135 147 130 150 149 155 158 168 183 191 192 197 203 86 44 47 20 52 51 128 178 187 157 174 182 319 330 0 357 355 13 348 355 6 343 328 349 349 349 344 337 286 276
27 91 24 149 150 137 135 217 192 163 164 168 175 180 182 190 203 221 215 164 73 54 20 359 52 119 167 140 110 185 238 318 347 358 350 353 11 337 340 0 349 335 346 351 350 349 323 284 269
31 63 49 217 163 167 150 242 183 175 180 184 182 177 185 197 208 211 212 201 124 67 57 2 217 146 136 132 95 85 90 354 4 353 356 5 10 359 349 356 345 349 346 352 356 352 336 317 314
346 16 152 311 206 143 200 246 184 182 188 198 190 186 193 196 207 212 222 211 139 67 39 34 141 161 146 161 180 166 163 276 326 342 354 9 13 18 22 7 5 6 356 360 6 360 344 341 351
207 208 225 231 273 184 201 240 181 191 198 205 199 196 200 200 211 215 224 223 230 194 37 27 98 163 167 163 178 173 194 299 290 323 347 4 15 24 23 17 10 1 7 11 19 15 14 8 10
183 321 158 263 214 107 267 251 191 193 205 216 208 199 204 208 211 214 224 227 230 226 87 23 35 180 191 187 191 189 187 269 260 304 346 356 12 17 18 14 11 10 11 22 26 28 25 24 36
171 174 218 250 93 137 215 253 191 195 205 212 210 207 205 205 204 208 217 223 231 238 227 1 356 219 194 186 183 172 192 226 257 311 334 348 1 3 9 9 2 9 15 28 30 34 35 37 31
249 131 210 186 97 32 299 35 77 336 303 260 255 222 213 210 208 208 212 222 224 225 226 252 311 283 228 184 181 186 186 207 240 284 321 328 327 345 357 2 358 7 18 26 31 30 32 36 42
55 164 168 165 97 7 353 316 19 337 292 289 272 235 220 219 217 214 213 221 221 224 227 245 272 294 251 200 202 199 208 206 225 256 269 294 301 322 348 355 354 2 22 32 32 33 36 30 32
207 134 122 83 85 96 2 77 277 156 260 250 261 250 234 228 219 213 216 221 219 223 233 239 263 280 297 246 211 216 232 236 240 252 252 280 319 304 341 351 350 355 11 16 18 21 25 23 21
122 144 36 52 55 30 244 157 234 183 230 297 263 248 236 228 218 215 216 217 214 221 231 241 258 264 298 278 235 226 234 238 227 231 247 296 292 288 333 344 348 352 3 4 3 6 18 16 14
87 46 356 1 1 232 228 53 249 215 235 234 237 274 233 226 218 214 211 211 213 213 222 235 241 253 278 321 320 237 240 221 215 250 250 282 281 290 314 330 340 352 346 352 357 3 1 5 355
78 116 154 353 314 289 272 284 272 219 189 220 6 333 233 217 221 215 213 214 213 211 217 236 238 239 256 304 331 351 324 274 282 287 292 285 273 288 301 313 320 329 345 329 326 339 346 343 339
16 43 251 110 160 13 232 281 235 302 324 327 17 29 35 218 208 213 216 217 213 206 223 232 230 235 248 286 328 331 329 293 321 305 312 290 302 324 310 301 312 310 323 334 320 318 329 335 333
120 170 14 17 343 323 287 295 251 262 266 309 51 37 47 57 214 206 216 229 216 224 229 228 221 238 251 279 311 323 337 328 332 316 320 316 311 311 313 298 292 307 305 299 303 307 311 312 317
64 52 44 112 139 190 309 283 238 193 214 232 81 44 57 89 179 185 190 232 234 230 235 227 222 231 246 274 284 292 334 346 333 330 323 318 314 312 316 307 299 297 302 302 300 296 296 294 295
159 161 150 128 227 189 150 276 343 8 77 118 98 88 69 72 163 177 225 229 238 231 238 230 228 238 255 303 279 293 318 322 316 319 326 323 323 318 316 307 299 298 297 295 294 293 295 295 296
Wind_Speed_850mb
29 32 20 7 7 10 7 7 13 10 13 38 36 34 22 21 4 9 27 26 15 10 19 26 21 18 17 14 14 14 15 15 14 15 15 16 18 21 22 23 23 23 21 22 25 23 19 21 25
31 29 23 9 9 7 6 9 29 28 46 55 56 43 41 25 34 37 32 21 12 14 16 22 25 21 17 14 15 16 15 16 16 16 16 17 19 21 23 26 27 29 30 30 22 22 24 23 23
37 9 17 8 2 4 11 13 27 31 24 19 12 22 13 21 20 19 22 12 10 12 13 17 20 20 18 13 14 14 17 18 18 16 16 19 20 20 23 27 28 29 30 29 28 20 20 20 21
41 30 18 8 10 13 15 26 48 42 34 25 26 16 37 25 25 25 20 19 19 24 19 14 15 17 15 12 16 22 23 18 14 13 13 14 15 19 26 33 34 34 28 22 21 21 20 19 18
32 18 11 8 10 16 24 41 44 21 24 34 40 21 28 29 26 35 34 27 21 22 17 12 14 14 13 11 18 23 23 13 8 6 7 10 15 22 28 34 43 43 38 34 26 20 19 19 20
23 22 6 6 9 19 7 28 40 43 43 39 42 32 16 28 36 37 36 25 24 16 18 12 15 16 14 14 18 23 24 16 9 4 4 6 7 21 28 31 37 35 37 34 33 31 28 19 14
18 7 11 7 4 4 9 4 17 26 18 11 33 12 27 42 41 42 31 21 13 13 16 16 15 11 10 15 19 22 22 21 16 8 7 12 9 17 24 22 29 29 29 31 25 26 24 23 19
11 11 8 6 6 8 8 4 27 18 7 35 27 7 18 37 32 25 17 16 14 7 12 11 5 8 8 7 18 17 23 28 29 17 7 7 6 7 11 17 16 21 22 24 23 23 23 19 13
6 7 9 12 13 9 22 11 9 26 42 12 11 43 50 34 23 13 8 10 14 7 4 8 9 14 13 9 14 14 21 27 31 20 5 11 6 3 3 4 12 16 22 27 22 19 26 24 10
9 6 16 15 21 16 27 48 37 20 22 13 32 47 41 26 12 7 10 13 14 12 12 5 11 15 11 11 10 11 18 29 26 23 6 9 7 3 10 10 13 22 22 16 12 17 25 19 9
15 12 14 15 36 36 40 39 39 44 11 48 56 49 36 24 11 4 5 6 9 11 10 8 20 17 19 17 9 11 20 24 22 25 17 14 12 2 8 14 21 21 9 14 20 25 20 9 7
11 10 24 27 29 38 36 43 19 30 26 49 50 39 27 14 9 1 4 4 8 6 9 10 11 26 17 13 10 9 12 14 21 26 24 19 17 4 11 20 22 7 16 21 22 26 22 11 6
11 13 33 51 51 42 40 34 24 21 43 49 45 34 25 18 15 12 2 4 8 6 6 9 9 15 22 19 10 5 1 8 16 20 28 23 19 9 14 18 7 18 19 24 32 35 22 14 11
2 18 14 39 50 45 33 25 30 37 50 51 45 33 28 28 25 17 8 3 7 8 6 7 7 9 18 17 9 11 5 6 11 20 31 26 19 8 15 17 12 19 23 29 32 35 23 16 17
14 9 10 32 36 13 49 4 11 51 47 50 41 39 39 39 31 19 9 6 8 11 7 6 4 10 16 6 11 15 4 3 10 19 32 27 19 13 19 19 16 22 25 31 35 24 18 20 22
10 11 5 8 25 28 21 12 26 55 52 51 52 54 55 50 39 30 14 8 7 10 8 5 0 12 20 14 16 10 4 4 11 16 31 30 23 17 18 18 21 22 26 32 40 28 18 16 19
13 2 2 15 17 14 13 7 36 64 59 51 54 61 59 53 47 35 23 11 3 6 10 6 5 19 20 15 13 10 4 6 9 19 28 33 30 24 22 23 21 21 30 37 38 28 24 24 23
11 8 7 11 7 15 13 16 37 57 53 50 58 65 62 64 56 42 30 20 7 3 8 9 6 13 14 9 14 16 8 5 8 15 23 30 29 30 29 26 26 26 33 40 35 28 27 24 23
14 5 7 15 12 7 12 16 32 55 49 42 56 67 67 70 56 45 36 27 19 11 1 9 7 5 11 17 17 14 12 4 12 13 17 28 23 30 35 36 29 31 36 40 39 32 30 26 22
12 12 15 14 12 12 11 17 26 46 57 64 61 63 67 66 57 54 46 39 27 14 6 3 5 1 7 12 20 18 21 12 10 10 18 20 21 29 34 41 35 30 30 31 44 38 37 35 29
12 16 5 9 6 7 4 9 8 2 21 37 49 75 71 72 71 66 58 51 37 23 10 6 4 2 5 9 18 19 19 17 11 8 17 17 20 23 30 38 39 28 25 29 37 41 37 33 27
4 4 12 8 3 3 6 3 9 12 17 30 45 59 64 69 76 78 67 61 46 26 17 13 8 4 4 8 13 19 23 20 18 13 12 15 17 16 24 35 37 23 24 23 27 36 39 33 30
9 9 7 8 9 6 9 9 11 3 24 28 33 52 68 66 76 84 75 64 44 31 22 16 15 5 3 4 12 17 22 20 17 8 12 11 9 12 22 32 35 21 19 23 24 24 30 36 30
11 4 18 10 6 7 7 8 7 10 18 11 37 59 71 69 72 82 74 63 48 35 31 25 20 12 3 3 6 9 11 15 19 15 9 13 8 12 20 29 32 22 16 26 25 23 22 27 30
11 14 8 10 9 9 10 3 14 10 22 39 39 25 72 69 78 83 75 75 59 49 39 30 26 18 8 5 3 2 5 10 15 16 13 17 24 19 20 21 29 26 16 15 23 29 19 21 25
11 13 8 3 6 5 11 7 8 12 21 21 19 18 36 68 76 84 80 78 70 53 40 30 31 23 13 8 10 8 8 13 15 12 16 19 18 25 24 27 27 26 23 13 18 23 26 21 21
7 9 6 9 9 4 6 11 2 9 13 18 20 45 29 22 47 70 79 80 76 54 46 37 33 25 18 10 11 10 9 11 14 11 13 13 14 19 23 22 24 23 23 19 19 24 26 28 22
11 7 6 7 4 8 10 7 8 10 11 9 36 32 42 20 28 35 40 62 71 61 50 43 35 26 15 12 11 12 13 13 17 19 17 19 18 20 21 20 23 23 24 24 25 26 25 27 27
2 4 11 7 9 7 5 12 12 11 16 7 23 33 28 15 28 51 39 60 65 73 65 47 40 26 19 13 14 16 14 17 19 23 22 23 23 24 28 27 26 27 27 26 31 34 34 36 37
9 12 11 9 7 4 8 13 12 10 15 23 14 30 23 10 34 45 45 78 60 77 72 51 38 23 14 13 20 21 20 18 21 26 26 26 30 30 31 30 27 26 27 29 32 34 35 37 39
Wind_Direction_850mb
62 35 21 56 76 57 331 97 140 112 57 72 85 83 85 62 91 158 137 149 112 51 22 11 15 4 353 337 335 337 335 335 336 336 340 342 346 349 345 341 338 336 340 337 327 319 312 308 308
31 14 23 26 61 96 261 144 90 106 121 99 85 79 64 72 85 132 145 131 67 10 16 39 40 28 11 351 344 341 334 329 323 325 330 337 342 344 341 337 335 332 328 326 336 324 313 303 296
75 317 38 65 88 299 125 111 117 109 103 105 86 59 61 89 107 149 123 89 360 53 53 46 37 35 30 25 16 2 346 331 325 330 338 342 346 353 352 345 337 328 321 317 319 326 322 323 311
93 43 59 68 355 294 128 120 111 109 84 85 102 61 84 96 109 118 100 93 106 82 71 55 45 31 30 39 16 1 350 329 324 334 341 351 4 3 6 7 360 355 347 323 317 325 326 330 335
84 56 36 15 338 14 83 115 116 104 95 89 98 113 105 109 102 105 105 99 83 84 68 45 36 30 25 44 12 360 352 330 326 356 22 16 1 358 11 15 12 15 25 33 26 7 347 327 319
80 100 51 310 355 1 51 120 95 88 100 107 105 118 119 121 118 118 106 98 88 90 66 68 32 31 35 26 22 12 11 9 9 19 14 333 356 0 10 20 11 13 26 36 35 27 23 17 338
117 107 173 171 239 290 256 108 88 104 103 70 130 103 105 110 113 113 108 107 107 58 45 63 64 38 21 21 33 30 26 20 4 336 354 7 26 9 4 18 11 12 18 18 22 18 4 6 15
87 76 127 205 177 251 239 199 130 112 102 127 130 123 119 135 133 127 109 79 70 57 348 5 87 109 52 52 51 36 5 6 2 359 266 314 13 27 34 33 357 3 7 1 355 360 352 351 332
113 73 150 183 152 229 176 147 138 122 127 138 86 112 132 136 145 137 84 23 10 351 350 322 52 146 109 78 65 35 12 357 355 8 249 257 294 251 311 37 341 342 337 328 336 338 339 358 3
103 111 211 185 168 181 179 125 130 127 124 132 104 128 133 145 156 102 33 14 350 349 351 21 129 115 155 120 79 46 2 343 356 10 355 356 352 222 291 284 301 328 332 340 347 330 322 346 20
159 175 174 198 172 167 157 141 143 145 175 157 142 136 138 135 120 37 33 341 349 332 338 63 179 138 128 120 92 2 340 345 3 13 11 18 12 197 290 335 348 347 0 350 357 352 350 351 345
49 32 162 178 198 170 148 149 156 171 180 162 150 152 153 161 154 344 336 353 351 319 10 38 150 183 174 199 230 284 330 6 355 0 10 22 29 90 351 8 9 20 353 354 347 334 327 314 304
78 20 121 146 149 153 141 145 139 145 165 157 152 150 152 173 195 210 273 44 25 351 24 57 87 187 200 226 228 184 27 341 345 354 360 9 19 359 3 19 1 343 351 345 340 338 329 299 273
166 104 142 141 139 140 135 147 130 150 149 155 158 168 183 191 192 197 203 86 44 47 20 52 51 128 178 187 157 174 182 319 330 0 357 355 13 348 355 6 343 328 349 349 349 344 337 286 276
27 91 24 149 150 137 135 217 192 163 164 168 175 180 182 190 203 221 215 164 73 54 20 359 52 119 167 140 110 185 238 318 347 358 350 353 11 337 340 0 349 335 346 351 350 349 323 284 269
31 63 49 217 163 167 150 242 183 175 180 184 182 177 185 197 208 211 212 201 124 67 57 2 217 146 136 132 95 85 90 354 4 353 356 5 10 359 349 356 345 349 346 352 356 352 336 317 314
346 16 152 311 206 143 200 246 184 182 188 198 190 186 193 196 207 212 222 211 139 67 39 34 141 161 146 161 180 166 163 276 326 342 354 9 13 18 22 7 5 6 356 360 6 360 344 341 351
207 208 225 231 273 184 201 240 181 191 198 205 199 196 200 200 211 215 224 223 230 194 37 27 98 163 167 163 178 173 194 299 290 323 347 4 15 24 23 17 10 1 7 11 19 15 14 8 10
183 321 158 263 214 107 267 251 191 193 205 216 208 199 204 208 211 214 224 227 230 226 87 23 35 180 191 187 191 189 187 269 260 304 346 356 12 17 18 14 11 10 11 22 26 28 25 24 36
171 174 218 250 93 137 215 253 191 195 205 212 210 207 205 205 204 208 217 223 231 238 227 1 356 219 194 186 183 172 192 226 257 311 334 348 1 3 9 9 2 9 15 28 30 34 35 37 31
249 131 210 186 97 32 299 35 77 336 303 260 255 222 213 210 208 208 212 222 224 225 226 252 311 283 228 184 181 186 186 207 240 284 321 328 327 345 357 2 358 7 18 26 31 30 32 36 42
55 164 168 165 97 7 353 316 19 337 292 289 272 235 220 219 217 214 213 221 221 224 227 245 272 294 251 200 202 199 208 206 225 256 269 294 301 322 348 355 354 2 22 32 32 33 36 30 32
207 134 122 83 85 96 2 77 277 156 260 250 261 250 234 228 219 213 216 221 219 223 233 239 263 280 297 246 211 216 232 236 240 252 252 280 319 304 341 351 350 355 11 16 18 21 25 23 21
122 144 36 52 55 30 244 157 234 183 230 297 263 248 236 228 218 215 216 217 214 221 231 241 258 264 298 278 235 226 234 238 227 231 247 296 292 288 333 344 348 352 3 4 3 6 18 16 14
87 46 356 1 1 232 228 53 249 215 235 234 237 274 233 226 218 214 211 211 213 213 222 235 241 253 278 321 320 237 240 221 215 250 250 282 281 290 314 330 340 352 346 352 357 3 1 5 355
78 116 154 353 314 289 272 284 272 219 189 220 6 333 233 217 221 215 213 214 213 211 217 236 238 239 256 304 331 351 324 274 282 287 292 285 273 288 301 313 320 329 345 329 326 339 346 343 339
16 43 251 110 160 13 232 281 235 302 324 327 17 29 35 218 208 213 216 217 213 206 223 232 230 235 248 286 328 331 329 293 321 305 312 290 302 324 310 301 312 310 323 334 320 318 329 335 333
120 170 14 17 343 323 287 295 251 262 266 309 51 37 47 57 214 206 216 229 216 224 229 228 221 238 251 279 311 323 337 328 332 316 320 316 311 311 313 298 292 307 305 299 303 307 311 312 317
64 52 44 112 139 190 309 283 238 193 214 232 81 44 57 89 179 185 190 232 234 230 235 227 222 231 246 274 284 292 334 346 333 330 323 318 314 312 316 307 299 297 302 302 300 296 296 294 295
159 161 150 128 227 189 150 276 343 8 77 118 98 88 69 72 163 177 225 229 238 231 238 230 228 238 255 303 279 293 318 322 316 319 326 323 323 318 316 307 299 298 297 295 294 293 295 295 296